#timestamp,LO_Frequency,Hit,StdDev 
1593946815.3,286046998.7,N
1593946835.1,286046998.9,N
1593946855.9,286046998.8,N
1593946875.7,286046999.0,N
1593946895.6,286046997.1,N
1593946915.4,286046996.6,N
1593946935.2,286046996.8,N
1593946955.1,286046997.5,N
1593946956.0,286046997.5,N
1593946975.8,286046997.1,N
1593946995.6,286047000.9,N
1593947015.5,286046999.3,N
1593947035.3,286046999.7,N
1593947055.2,286046998.8,N
1593947075.9,286046995.0,Y
1593947095.7,286046997.3,P
1593947115.6,286046998.0,N
1593947135.4,286046999.6,N
1593947155.3,286046997.7,N
1593947175.1,286046993.5,Y
1593947176.0,286046993.5,P
1593947195.8,286046996.2,N
1593947215.7,286046993.3,P
1593947235.5,286046996.1,N
1593947255.4,286046994.9,N
1593947275.2,286046995.4,N
1593947295.0,286046994.2,Y
1593947295.9,286046994.2,P
1593947315.8,286047003.5,P
1593947335.6,286047005.7,N
1593947355.4,286047001.3,N
1593947375.3,286047004.0,N
1593947395.1,286047004.3,N
1593947415.9,286047002.0,N
1593947435.7,286046999.7,N
1593947455.5,286047002.8,N
1593947475.4,286047000.2,N
1593947495.2,286046999.9,N
1593947515.1,286047003.5,N
1593947516.0,286047003.5,N
1593947535.8,286047004.1,N
1593947555.6,286047002.1,N
1593947575.5,286047002.3,N
1593947595.3,286047002.2,N
1593947615.1,286047002.1,N
1593947635.9,286047001.7,N
1593947655.7,286047001.3,N
1593947675.6,286047002.6,N
1593947695.4,286046999.9,N
1593947715.2,286047002.5,N
1593947735.1,286047002.4,N
1593947736.0,286047002.4,N
1593947755.8,286047002.8,N
1593947775.7,286047002.5,N
1593947795.5,286046999.7,N
1593947815.3,286047002.6,N
1593947835.2,286047003.9,N
1593947855.0,286047004.0,N
1593947855.9,286047004.0,N
1593947875.7,286047003.6,N
1593947895.6,286047001.3,N
1593947915.4,286047001.3,N
1593947935.3,286047000.3,N
1593947955.1,286047002.8,N
1593947975.8,286046999.9,N
1593947995.7,286047000.9,N
1593948015.5,286047000.7,N
1593948035.4,286046998.4,N
1593948055.2,286046998.7,N
1593948075.0,286047000.8,N
1593948075.9,286047000.8,N
1593948095.8,286046998.8,N
1593948115.6,286046997.1,N
1593948135.5,286047000.2,N
1593948155.3,286046999.9,N
1593948175.1,286047002.2,N
1593948195.9,286046998.4,N
1593948215.7,286046996.5,N
1593948235.5,286047001.0,N
1593948255.4,286047000.6,N
1593948275.2,286047000.3,N
1593948295.1,286047002.5,N
1593948296.0,286047002.5,N
1593948315.8,286047000.2,N
1593948335.6,286047000.2,N
1593948355.5,286047004.4,N
1593948375.3,286046997.4,N
1593948395.2,286047001.1,N
1593948415.9,286047001.5,N
1593948435.7,286047004.3,N
1593948455.6,286047003.8,N
1593948475.4,286047002.0,N
1593948495.2,286047003.4,N
1593948515.1,286047001.3,N
1593948516.0,286047001.3,N
1593948535.8,286046999.1,N
1593948555.7,286047003.6,N
1593948575.5,286047002.3,N
1593948595.3,286046999.6,N
1593948615.2,286046999.6,N
1593948635.0,286047001.2,N
1593948635.9,286047001.2,N
1593948655.8,286047002.7,N
1593948675.6,286047000.3,N
1593948695.4,286047000.6,N
1593948715.3,286046996.5,N
1593948735.1,286047002.1,N
1593948755.9,286047000.3,N
1593948775.7,286047001.5,N
1593948795.5,286046996.7,N
1593948815.4,286046998.6,N
1593948835.2,286046999.7,N
1593948855.1,286047002.6,N
1593948856.0,286047002.6,N
1593948875.8,286047002.5,N
1593948895.6,286047000.4,N
1593948915.5,286047000.9,N
1593948935.3,286047001.9,N
1593948955.1,286047002.8,N
1593948975.9,286047001.6,N
1593948995.7,286047003.8,N
1593949015.6,286047003.1,N
1593949035.4,286046998.5,N
1593949055.2,286047007.5,Y
1593949075.1,286047004.4,P
1593949076.0,286047004.4,N
1593949095.8,286047005.4,P
1593949115.7,286047006.9,Y
1593949135.5,286046998.2,P
1593949155.3,286047002.4,N
1593949175.2,286046997.3,N
1593949195.0,286046996.5,N
1593949195.9,286046996.5,N
1593949215.8,286046996.5,N
1593949235.6,286046995.4,N
1593949255.4,286046995.7,N
1593949275.3,286046993.3,N
1593949295.1,286047000.1,N
1593949315.8,286046998.6,N
1593949335.7,286046999.5,N
1593949355.5,286046999.6,N
1593949375.4,286046999.3,N
1593949395.2,286046997.1,N
1593949415.0,286046998.4,N
1593949415.9,286046998.4,N
1593949435.8,286047001.0,N
1593949455.6,286046998.9,N
1593949475.5,286046996.6,N
1593949495.3,286046998.9,N
1593949515.1,286046999.1,N
1593949535.9,286046998.4,N
1593949555.7,286046999.3,N
1593949575.6,286046999.2,N
1593949595.4,286046997.3,N
1593949615.2,286046997.2,N
1593949635.1,286046997.3,N
1593949636.0,286046997.3,N
1593949655.8,286046994.9,N
1593949675.7,286046996.2,N
1593949695.5,286046992.2,Y
1593949715.4,286046996.1,P
1593949735.2,286046995.7,P
1593949755.0,286046995.0,P
1593949755.9,286046995.0,Y
1593949775.8,286046999.7,P
1593949795.6,286047003.6,N
1593949815.5,286047005.5,N
1593949835.3,286047004.1,N
1593949855.1,286047005.9,N
1593949875.9,286047007.6,N
1593949895.7,286047004.7,N
1593949915.5,286047007.4,N
1593949935.4,286047000.8,N
1593949955.2,286047000.3,N
1593949975.1,286047003.0,N
1593949976.0,286047003.0,N
1593949995.8,286047007.3,N
1593950015.6,286047008.9,N
1593950035.5,286047009.8,N
1593950055.3,286047009.8,N
1593950075.1,286047010.2,N
1593950095.9,286047010.4,N
1593950115.7,286047009.9,N
1593950135.6,286047009.8,N
1593950155.4,286047007.3,N
1593950175.2,286047006.2,N
1593950195.1,286047006.8,N
1593950196.0,286047006.8,N
1593950215.8,286047010.2,N
1593950235.7,286047006.2,N
1593950255.5,286047007.0,N
1593950275.3,286047007.0,N
1593950295.2,286047005.5,N
1593950315.0,286047005.3,N
1593950315.9,286047005.3,N
1593950335.8,286047010.4,Y
1593950355.6,286047002.7,P
1593950375.4,286047001.1,N
1593950395.3,286047001.2,N
